Showing default

HERMES-2, 63243

Orbit data source: Space-Track

HERMES-2, 63243 is a payload satellite owned by ASI (IT) in SSO that was launched on Sat, 15 Mar 2025 UTC via an FALCON 9 launch vehicle from the Air Force Western Test Range (AFWTR). Payload-class satellites include a variety of spacecraft equipped with specific instruments for various scientific and technological missions. These include communications satellites like Starlink; space stations such as the ISS; scientific satellites like the Hubble; Earth observation satellites from companies like Planet Labs, Umbra, and HawkEye 360; GPS; miniature CubeSats for education and research; and military/defense satellites.

Loading next visibility...
Identifier
63243, 2025-052AK
Orbit
SSO
Country
Flag of ITIT
Related business
Manufacturer
MILANP/INAFI
Mission
Operational Civil Astronomy
Bus & Motor
CUBESAT 3U, Unknown motor
Mass
5 kg wet, 5 kg dry
Launch date (UTC)
2025-03-15 (1 year ago)
Launch vehicle
FALCON 9
Launch site
Air Force Western Test Range (AFWTR)
Object type
Payload
Rocket body
Debris
Shape & HBR
Box, 0.2 m
Radar Cross Section
0.035 m², Medium (>0.1 m² and < 1m²)

Expand to show TLE details & history
Last TLE update: 17 hours ago

TLE from 17 hours ago
0 HERMES-2
1 63243U 25052AK  26151.13999851  .00018310  00000-0  63851-3 0  9991
2 63243  97.3917  46.1601 0005260 152.4380 207.7140 15.29668161 67414
Epoch: 2026-05-31T03:21Z
TLE epoch observation values (Epoch: 2026-05-31T03:21:35.871Z)
Latitude
-0.00003°
Longitude
107.11469°
Altitude
483.101 km
Speed
7.622 km/s
True Right ascension
03h 04m 38s
True Declination
0° 00' 00"
Sunlit
Object was in daylight at epoch
Visualization orbit readout
Latitude
Unknown
Longitude
Unknown
Altitude
Unknown
Speed
Unknown
Apparent Right ascension
Unknown
Apparent Declination
Unknown
Sunlit
N/A
Visualization observer readout
Local Sidereal Time
06:00:02
Azimuth
Unknown
Elevation
Unknown
Doppler factor
Unknown
Orbital elements
Apogee altitude
477.36 km
Perigee altitude
470.152 km
Semi-major axis
6,851.893 km
Eccentricity
0.00053
Inclination
97.3917°
RAAN
46.1601°
Arg. of periapsis
152.438°
True anomaly
207.68598°
Mean anomaly
207.714°
Eccentric anomaly
207.69999°
Mean motion
3.82673 °/min
Orbital period
94.08 mins
BSTAR
0.00063851
Loading maneuver chart data...
Computing Atmospheric mass density...
Loading historical data...
Loading historical data...
Loading historical data...
Loading historical data...
Loading historical data...
Loading historical data...
Loading historical data...

Documentation

Showing up to 5 results
|